This is the latest recevied weather packets stored in our database for station/object N9BSW. If no packets are shown the sender has not sent any weather packets the latest 10 day(s).
| Time | Temp. | Humidity | Pressure | Rain* | Wind** | Luminosity | Snow |
|---|---|---|---|---|---|---|---|
| 1777667702 | 13.33° C | 46% | 1016 hPa | 0 mm | - | 270 W/m² | - |
| 1777667400 | 13.33° C | 47% | 1016.2 hPa | 0 mm | - | 864 W/m² | - |
| 1777667096 | 13.89° C | 47% | 1016.3 hPa | 0 mm | - | 358 W/m² | - |
| 1777666792 | 13.89° C | 45% | 1016.4 hPa | 0 mm | - | 400 W/m² | - |
| 1777666490 | 13.33° C | 44% | 1016.3 hPa | 0 mm | - | 826 W/m² | - |
| 1777666187 | 14.44° C | 42% | 1016.4 hPa | 0 mm | - | 442 W/m² | - |
| 1777665884 | 13.89° C | 45% | 1016.3 hPa | 0 mm | - | 787 W/m² | - |
| 1777665581 | 13.33° C | 46% | 1016.5 hPa | 0 mm | - | 844 W/m² | - |
| 1777665278 | 12.78° C | 51% | 1016.6 hPa | 0 mm | - | 594 W/m² | - |
| 1777664973 | 12.22° C | 52% | 1016.4 hPa | 0 mm | - | 352 W/m² | - |
| 1777664669 | 12.22° C | 48% | 1016.5 hPa | 0 mm | - | 286 W/m² | - |
| 1777664365 | 12.22° C | 49% | 1016.7 hPa | 0 mm | - | 391 W/m² | - |
| 1777664064 | 12.22° C | 50% | 1016.5 hPa | 0 mm | - | 381 W/m² | - |
| 1777663761 | 12.22° C | 51% | 1016.7 hPa | 0 mm | - | 365 W/m² | - |
| 1777663458 | 11.67° C | 50% | 1016.5 hPa | 0 mm | - | 470 W/m² | - |
| 1777663155 | 11.67° C | 49% | 1016.5 hPa | 0 mm | - | 287 W/m² | - |
| 1777662853 | 12.22° C | 48% | 1016.5 hPa | 0 mm | - | 256 W/m² | - |
| 1777662549 | 12.78° C | 51% | 1016.3 hPa | 0 mm | - | 987 W/m² | - |
| 1777662246 | 12.22° C | 50% | 1016.3 hPa | 0 mm | - | 1129 W/m² | - |
| 1777661940 | 12.78° C | 50% | 1016.3 hPa | 0 mm | - | 346 W/m² | - |
| 1777661636 | 12.78° C | 50% | 1016.2 hPa | 0 mm | - | 1044 W/m² | - |
| 1777661333 | 12.78° C | 48% | 1016.2 hPa | 0 mm | - | 1104 W/m² | - |
| 1777661029 | 12.22° C | 50% | 1016.3 hPa | 0 mm | - | 566 W/m² | - |
| 1777660724 | 12.22° C | 55% | 1016.3 hPa | 0 mm | - | 534 W/m² | - |
| 1777660422 | 12.22° C | 51% | 1016.2 hPa | 0 mm | - | 382 W/m² | - |
* Rain latest hour (hover to see other rain measurements)
** Current wind speed in m/s (hover to see current wind gust speed)